This demonstration page uses our WeatherBlox Daily Observations layout. Learn more.

Left ArrowRight Arrow

39.01783, -85.05884

Hourly Observations for September 13, 2017

Temp ( °F °C ) Dew Point ( °F °C ) Humidity (%) Winds ( mph kmh ) Pressure ( in mb ) Visibility ( mi km ) Precip ( " mm )
12:15 am 00:15 Cloudy 64 17.8 63 17.2 96 96 ESE 7 11 29.77 1008 10 16 0.00 0.00
12:52 am 00:52 Cloudy 64 17.8 63 17.2 96 96 S 5 7 29.78 1008 10 16 0.00 0.00
1:30 am 01:30 Cloudy with Drizzle 64 17.8 64 17.8 100 100 SSE 5 7 29.77 1008 8 13 0.00 0.03
1:52 am 01:52 Cloudy 64 17.8 64 17.8 100 100 S 6 9 29.78 1008 10 16 0.00 0.03
2:52 am 02:52 Cloudy 63 17.2 63 17.2 100 100 S 5 7 29.78 1008 10 16 0.00 0.00
3:52 am 03:52 Cloudy 63 17.2 63 17.2 100 100 SSE 5 7 29.77 1008 10 16 0.00 0.00
4:52 am 04:52 Cloudy 64 17.8 64 17.8 100 100 SE 7 11 29.77 1008 10 16 0.00 0.00
5:36 am 05:36 Cloudy with Light Rain 63 17.2 63 17.2 100 100 S 6 9 29.77 1008 3 5 0.02 0.51
5:52 am 05:52 Cloudy 63 17.2 63 17.2 100 100 SSE 7 11 29.78 1009 10 16 0.02 0.51
6:52 am 06:52 Cloudy 63 17.2 63 17.2 100 100 ESE 8 13 29.79 1009 10 16 0.00 0.00
7:52 am 07:52 Cloudy 63 17.2 63 17.2 100 100 SSE 8 13 29.80 1009 10 16 0.00 0.03
8:21 am 08:21 Cloudy 63 17.2 63 17.2 100 100 SE 10 17 29.80 1009 8 13 0.00 0.03
8:52 am 08:52 Cloudy 63 17.2 63 17.2 100 100 SSE 10 17 29.80 1009 10 16 0.00 0.03
8:58 am 08:58 Cloudy with Light Rain 63 17.2 63 17.2 100 100 SSE 12 19 29.80 1009 10 16 0.00 0.03
9:52 am 09:52 Cloudy with Light Rain 63 17.2 63 17.2 100 100 SSE 9 15 29.81 1009 7 11 0.01 0.25
10:52 am 10:52 Cloudy with Light Rain 63 17.2 63 17.2 100 100 S 10 17 29.82 1010 7 11 0.01 0.25
10:57 am 10:57 Cloudy with Light Rain 63 17.2 63 17.2 100 100 S 8 13 29.80 1009 5 8 0.00 0.03
10:59 am 10:59 Cloudy with Light Rain 63 17.2 63 17.2 100 100 S 8 13 29.80 1009 5 8 0.00 0.03
11:08 am 11:08 Cloudy with Light Rain 63 17.2 63 17.2 100 100 S 8 13 29.80 1009 5 8 0.01 0.25
11:13 am 11:13 Cloudy with Light Rain 63 17.2 63 17.2 100 100 S 7 11 29.80 1009 4 6 0.01 0.25
11:22 am 11:22 Cloudy with Light Rain 63 17.2 63 17.2 100 100 S 8 13 29.80 1009 3 5 0.01 0.25
11:42 am 11:42 Cloudy 63 17.2 62 16.7 97 97 S 5 7 29.80 1009 7 11 0.01 0.25
11:44 am 11:44 Cloudy 63 17.2 63 17.2 100 100 S 5 7 29.80 1009 7 11 0.01 0.25
11:52 am 11:52 Cloudy 63 17.2 63 17.2 100 100 S 6 9 29.81 1010 8 13 0.02 0.51
12:10 pm 12:10 Cloudy 63 17.2 63 17.2 100 100 S 6 9 29.80 1009 8 13 0.00 0.00
12:52 pm 12:52 Cloudy with Light Rain 63 17.2 63 17.2 100 100 S 3 6 29.80 1009 7 11 0.01 0.25
1:26 pm 13:26 Cloudy 65 18.3 63 17.2 93 93 ESE 8 13 29.77 1008 10 16 0.00 0.03
1:52 pm 13:52 Cloudy 64 17.8 63 17.2 96 96 ESE 10 17 29.78 1009 10 16 0.00 0.03
2:52 pm 14:52 Cloudy with Light Rain 64 17.8 62 16.7 93 93 SE 14 22 29.76 1008 10 16 0.00 0.03
3:08 pm 15:08 Cloudy with Heavy Rain 64 17.8 62 16.7 93 93 S 14 22 29.74 1007 3 5 0.00 0.03
3:17 pm 15:17 Cloudy with Rain 61 16.1 61 16.1 100 100 SSW 12 19 29.77 1008 3 5 0.04 1.02
3:43 pm 15:43 Cloudy with Light Rain 61 16.1 61 16.1 100 100 SSW 7 11 29.77 1008 3 5 0.06 1.52
3:52 pm 15:52 Cloudy with Light Rain 61 16.1 61 16.1 100 100 SSW 7 11 29.77 1008 3 5 0.06 1.52
4:05 pm 16:05 Cloudy 61 16.1 61 16.1 100 100 SSW 5 7 29.74 1007 9 14 0.00 0.03
4:48 pm 16:48 Cloudy 63 17 63 17 100 100 S 7 11 29.74 1007 10 16 0.00 0.03
4:52 pm 16:52 Cloudy 62 16.7 62 16.7 100 100 S 7 11 29.77 1008 10 16 0.00 0.03
5:52 pm 17:52 Cloudy 62 16.7 61 16.1 96 96 S 6 9 29.77 1008 10 16 0.00 0.00
6:52 pm 18:52 Cloudy 62 16.7 62 16.7 100 100 S 6 9 29.78 1008 10 16 0.00 0.03
7:42 pm 19:42 Cloudy with Light Rain 61 16.1 61 16.1 100 100 S 10 17 29.77 1008 5 8 0.00 0.03
7:52 pm 19:52 Cloudy with Light Rain 61 16.1 61 16.1 100 100 S 9 15 29.79 1009 6 10 0.00 0.03
8:42 pm 20:42 Cloudy with Light Rain 61 16.1 61 16.1 100 100 S 8 13 29.80 1009 5 8 0.02 0.51
8:52 pm 20:52 Cloudy with Light Rain 61 16.1 61 16.1 100 100 S 9 15 29.80 1009 6 10 0.02 0.51
9:52 pm 21:52 Cloudy with Drizzle 60 15.6 60 15.6 100 100 SSW 7 11 29.81 1010 9 14 0.00 0.03
10:25 pm 22:25 Cloudy with Drizzle 60 15.6 60 15.6 100 100 SSW 8 13 29.83 1010 7 11 0.00 0.03
10:52 pm 22:52 Cloudy with Light Rain 60 15.6 60 15.6 100 100 S 5 7 29.82 1010 8 13 0.00 0.03
11:52 pm 23:52 Cloudy with Drizzle 60 15.6 60 15.6 100 100 S 5 7 29.82 1010 5 8 0.01 0.25

Powered by AerisWeather